map of EBBE home
Great Circle Mapper logo
EBBE - Airport
Location
City:  Beauvechain, Belgium
ICAO:EBBE

Details
Type:Airport (Aerodrome, Airfield)
Use:Military
Latitude:5045'28"N (50.757778)
Longitude:446'01"E (4.766944)
Elevation:370 ft (113 m)
Runways:2
Longest:10085 × 148 ft (3074 × 45 m), paved

Time
Time Zone:UTC+1 (DST+2)
Local Time:

Weather
METAR:EBBE 211325Z 23012KT 9999 FEW040 SCT070 18/07 Q1016 BLU BLU

Related Locations
Nearby:
Farthest:CHT: 11947 mi / 19226 km
Waitangi [Tuuta], Chatham Islands, NZ

Find:

   beyond  
but within

Other Information
Maps:
NOTAMs:
Links:
Sources:

  
flag of Belgium   

Airport Diagram

Airport diagram for EBBE

Airport diagram (OBSOLETE) from NGA

Sectional Chart

Flight Planning
at skyvector.com

Satellite Image

Google Maps Satellite View

 

Copyright © 2004-2014 Karl L. Swartz. All rights reserved.
The Great Circle Mapper name and logo are trademarks of the Great Circle Mapper.
All other trademarks mentioned herein belong to their respective owners.
Please see credits for attibutions and further copyright information.

  Follow gcmap on Facebook Follow gcmap on Twitter

hCard Microformat

Geo Microformat